EST,Max TemperatureF,Mean TemperatureF,Min TemperatureF,Max Dew PointF,MeanDew PointF,Min DewpointF,Max Humidity, Mean Humidity, Min Humidity, Max Sea Level PressureIn, Mean Sea Level PressureIn, Min Sea Level PressureIn, Max VisibilityMiles, Mean VisibilityMiles, Min VisibilityMiles, Max Wind SpeedMPH, Mean Wind SpeedMPH, Max Gust SpeedMPH,PrecipitationIn, CloudCover, Events, WindDirDegrees
2013-11-1,68,64,60,64,61,59,100,91,81,29.84,29.70,29.66,10,8,2,24,10,33,0.21,4,Rain,205
2013-11-2,70,62,53,62,53,41,100,69,37,29.83,29.68,29.63,10,6,0,14,6,17,T,6,Fog-Rain,319
2013-11-3,54,44,33,42,34,21,89,64,39,30.44,30.11,29.84,10,10,10,21,10,27,T,2,,330
2013-11-4,48,39,29,30,25,20,82,66,49,30.61,30.56,30.46,10,10,8,17,9,23,0.00,0,,10
2013-11-5,58,46,34,43,39,30,92,75,57,30.63,30.62,30.61,10,10,8,13,4,16,0.00,1,,76
2013-11-6,63,49,34,58,47,33,100,80,60,30.40,30.26,30.12,10,10,9,14,6,18,0.00,3,,169
2013-11-7,62,50,37,61,55,37,100,90,80,30.11,29.92,29.80,10,9,5,25,9,31,0.25,7,Rain,252
2013-11-8,51,43,35,35,28,24,89,62,35,30.28,30.13,30.00,10,10,7,24,11,35,0.00,3,,280
2013-11-9,51,40,29,37,29,24,85,61,36,30.34,30.23,30.04,10,10,8,13,6,16,0.00,0,,233
2013-11-10,64,55,45,37,33,26,76,52,27,30.14,30.00,29.88,10,10,8,29,14,42,0.00,1,,263
2013-11-11,56,46,35,37,30,27,66,49,32,30.27,30.16,30.02,10,10,10,16,9,23,0.00,2,,254
2013-11-12,50,40,29,38,27,14,70,57,43,30.32,30.15,29.97,10,9,2,25,14,32,0.01,6,Rain-Snow,322
2013-11-13,40,33,25,20,14,11,63,47,30,30.42,30.37,30.33,10,9,7,26,11,32,0.00,0,,303
2013-11-14,55,43,31,32,21,8,72,44,16,30.35,30.29,30.24,10,10,8,22,9,28,0.00,0,,239
2013-11-15,58,46,33,36,32,31,96,66,36,30.29,30.25,30.20,10,9,8,10,4,13,0.00,0,,209
2013-11-16,50,43,36,48,44,35,100,91,82,30.36,30.30,30.26,10,6,3,7,2,9,0.09,7,Rain,69
2013-11-17,66,56,45,60,55,45,100,89,78,30.25,30.10,29.82,10,7,0,15,4,20,T,7,Fog,172
2013-11-18,68,56,43,60,44,26,100,63,26,29.83,29.74,29.68,10,9,2,26,12,37,0.18,4,Rain,241
2013-11-19,51,40,28,29,24,21,69,53,36,30.36,30.09,29.86,10,10,10,28,13,34,0.00,0,,319
2013-11-20,45,36,27,25,22,20,75,58,40,30.58,30.51,30.36,10,10,10,14,7,18,0.00,1,,15
2013-11-21,55,43,30,42,34,23,86,70,54,30.58,30.51,30.40,10,10,10,14,4,17,0.00,5,,50
2013-11-22,59,52,44,54,50,42,100,89,77,30.38,30.14,29.95,10,9,3,14,6,19,0.04,7,Rain,240
2013-11-23,54,44,33,53,29,13,100,67,34,30.07,30.01,29.95,10,10,5,26,15,35,0.00,0,,304
2013-11-24,33,27,21,12,1,-2,43,34,25,30.46,30.27,30.06,10,10,10,35,18,45,0.00,0,,303
2013-11-25,36,28,19,18,11,5,67,51,35,30.55,30.47,30.39,10,10,10,13,7,17,0.00,0,,251
2013-11-26,58,45,32,57,34,20,100,72,44,30.38,30.14,29.68,10,8,2,23,8,37,0.63,7,Rain,132
2013-11-27,62,47,32,61,47,19,100,80,59,29.86,29.50,29.39,10,7,1,32,18,47,1.14,8,Rain,271
2013-11-28,38,31,23,24,17,15,75,58,40,30.51,30.27,29.90,10,10,10,25,11,35,0.00,1,,295
2013-11-29,42,32,22,25,20,16,88,62,36,30.73,30.59,30.50,10,10,10,13,4,17,0.00,3,,351
2013-11-30,42,32,21,28,23,14,77,68,59,30.72,30.60,30.36,10,10,10,14,6,19,0.00,3,,9